Find Magion-5

NORAD ID: 24292 Int'l Des: 1996-050 Owner: CZ Country: CZ operational
MEOELLIPTICALHEO_ELLIPTICALMOLNIYA_TYPE

現在のビュー

3D地球を読み込み中...

About Magion-5

Magion-5 (NORAD 24292) is a satellite launched Aug 29, 1996 by CZ of CZ. It operates in MEO, ELLIPTICAL, HEO_ELLIPTICAL, MOLNIYA_TYPE orbit with a mass of 68.00 kg.

次回通過

Passes for default location (London). Set your location on the main map for personalized predictions.

高度履歴

Loading altitude history...

軌道要素

1 24292U 96050B 26236.69345059 -.00000003 00000-0 -81662-3 0 9990
2 24292 62.6682 141.1787 5592134 271.0208 28.9269 4.14737899454066
Epoch: Aug 24, 2026 • Age: 21 hours

現在のステータス

高度 14469.5 km
遠地点 / 近地点 N/A
速度 3.73 km/s
衛星直下点 46.27°N, 106.57°E
打ち上げ日 Aug 29, 1996
運用期間 29.9 years
タイプ other

技術仕様

分類 Payload
質量 68.00 kg
乾燥質量 68.00 kg
総質量 68.00 kg
長さ 0.90 m
直径 0.60 m
スパン 2.00 m
形状 Oct Cyl + 4 Pan + 2 Ant
製造者 UFA
バスタイプ Magion
フェーズステータス Unknown Transfer Status
所有者/国 CZ/CZ

Most Searched